Probability
0 0 0 0 0 0 0 0 0 3 0 0 0 0 0 0 0 0 0 0 0 94 84 16 0 6 16 84 100 90 84 84 100 97 87 58 32 35 26 0 3 0 0
0 0 0 0 0 0 0 0 0 0 0 0 0 0 0 0 0 0 0 0 0 3 48 13 3 0 0 6 94 100 90 74 81 87 90 77 32 19 45 0 0 0 0
0 0 0 0 0 0 0 0 0 0 0 0 0 0 0 0 0 0 0 0 0 0 10 29 10 0 0 0 48 100 100 87 77 87 100 90 68 10 26 39 16 0 0
0 0 0 0 0 0 0 0 0 0 0 0 0 0 0 0 0 0 0 0 0 0 0 3 23 6 0 0 16 90 100 97 87 94 97 87 84 55 32 0 0 0 0
0 0 0 0 0 0 0 0 0 0 0 0 0 0 0 0 0 0 0 0 0 0 0 0 0 6 6 0 0 77 94 90 87 94 97 90 77 48 10 0 0 0 0
0 0 0 0 0 0 0 0 0 0 0 0 0 0 0 0 0 0 0 0 0 0 0 0 0 0 0 0 0 0 52 84 87 61 65 45 39 45 23 3 0 0 0
0 0 0 0 0 0 0 0 0 0 0 0 0 0 0 0 0 0 0 0 0 0 0 0 0 0 0 0 0 0 0 10 35 65 48 19 16 16 6 6 0 0 0
0 0 0 0 0 0 0 0 0 0 0 0 0 0 0 0 0 0 0 0 0 0 0 0 0 0 0 0 0 0 0 0 0 6 65 29 0 0 0 0 0 0 0
0 0 0 0 0 0 0 0 0 0 0 0 0 0 0 0 0 0 0 0 0 0 0 0 0 0 0 0 0 0 0 0 0 0 0 6 0 0 0 0 0 0 0
0 0 0 0 0 0 0 0 0 0 0 0 0 0 0 0 0 0 0 0 0 0 0 0 0 0 0 0 0 0 0 0 0 0 0 0 0 3 0 0 0 0 0
0 0 0 0 0 0 0 0 0 0 0 0 0 0 0 0 0 0 0 0 0 0 0 0 0 0 0 0 0 0 0 0 0 0 0 0 0 0 0 0 0 0 0
0 0 0 0 0 0 0 0 0 0 0 0 0 0 0 0 0 0 0 0 0 0 0 0 0 0 0 0 0 0 0 0 0 0 0 0 0 0 0 26 0 0 0
0 0 0 0 0 0 0 0 0 0 0 0 0 0 0 0 0 0 0 0 0 0 0 0 0 0 0 0 0 0 0 0 0 0 0 0 0 0 0 23 3 0 0
0 0 0 0 0 0 0 0 0 0 0 0 0 0 0 0 0 0 0 0 0 0 0 0 0 0 0 0 0 0 0 0 0 0 0 0 0 0 0 0 0 0 0
0 0 0 0 0 0 0 0 0 0 0 0 0 0 0 0 0 0 0 0 0 0 0 0 0 0 0 0 0 0 0 0 0 0 0 0 0 0 0 0 0 0 0
0 0 0 0 0 0 0 0 0 0 0 0 0 0 0 0 0 0 0 0 0 0 0 0 0 0 0 0 0 0 0 0 0 0 0 0 0 0 0 0 0 0 0
0 0 0 0 0 0 0 0 0 0 0 0 0 0 0 0 0 0 0 0 0 0 0 0 0 0 0 0 0 0 0 0 0 0 0 0 0 0 0 0 0 0 0
0 0 0 0 0 0 0 0 0 0 0 0 0 0 0 0 0 0 0 0 0 0 0 0 0 0 0 0 0 0 0 0 0 0 0 0 0 0 0 0 0 0 0
0 0 0 0 0 0 0 0 0 0 0 0 0 0 0 0 0 0 0 0 0 0 0 0 0 0 0 0 0 0 0 0 0 0 0 0 0 0 0 0 0 0 0
0 0 0 0 0 0 0 0 0 0 0 0 0 0 0 0 0 0 0 0 0 0 0 0 0 0 0 0 0 0 0 0 0 0 0 0 0 0 0 0 0 0 0
0 0 0 0 0 0 0 0 0 0 0 0 0 0 0 0 0 0 0 0 0 0 0 0 0 0 0 0 0 0 0 0 0 0 0 0 0 0 0 0 0 0 0
0 0 0 0 0 0 0 0 0 0 0 0 0 0 0 0 0 0 0 0 0 0 0 0 0 0 0 0 0 0 0 0 0 0 0 0 0 0 0 0 0 0 0
0 0 0 0 0 0 0 0 0 0 0 0 0 0 0 0 0 0 0 0 0 0 0 0 0 0 0 0 0 0 0 0 0 0 0 0 0 0 0 0 0 0 0
0 0 0 0 0 0 0 0 0 0 0 0 0 0 0 0 0 0 0 0 0 0 0 0 0 0 0 0 0 0 0 0 0 0 0 0 0 0 0 0 0 0 0
0 0 0 0 0 0 0 0 0 0 0 0 0 0 0 0 0 0 0 0 0 0 0 0 0 0 0 0 0 0 0 0 0 0 0 0 0 0 0 0 0 0 0
0 0 0 0 0 0 0 0 0 0 0 0 0 0 0 0 0 0 0 0 0 0 0 0 0 0 0 0 0 0 0 0 0 0 0 0 0 0 0 0 0 0 0
Height
5767 5767 5766 5766 5766 5765 5765 5765 5765 5766 5766 5767 5767 5767 5767 5768 5770 5771 5773 5774 5775 5776 5776 5778 5780 5781 5783 5785 5786 5788 5789 5791 5793 5794 5795 5797 5799 5799 5798 5795 5798 5800 5800
5755 5755 5754 5753 5753 5753 5754 5754 5755 5755 5755 5755 5756 5756 5757 5758 5760 5761 5762 5765 5766 5768 5769 5770 5772 5773 5775 5777 5779 5781 5783 5784 5786 5786 5787 5791 5793 5794 5794 5796 5797 5798 5800
5742 5741 5741 5740 5740 5741 5742 5743 5743 5744 5744 5744 5745 5745 5746 5747 5749 5750 5751 5753 5756 5758 5759 5761 5763 5765 5766 5768 5771 5773 5775 5777 5778 5779 5780 5783 5786 5789 5789 5791 5792 5794 5796
5730 5729 5728 5727 5727 5728 5729 5731 5731 5732 5733 5733 5734 5735 5736 5737 5738 5740 5741 5743 5745 5748 5749 5751 5753 5755 5757 5759 5762 5764 5766 5769 5770 5771 5772 5775 5778 5781 5783 5784 5786 5788 5790
5718 5717 5716 5714 5715 5715 5717 5718 5719 5720 5721 5723 5724 5725 5725 5726 5728 5730 5730 5732 5733 5736 5738 5739 5741 5743 5746 5749 5752 5754 5756 5759 5761 5763 5764 5767 5769 5772 5774 5777 5779 5781 5784
5704 5704 5703 5702 5702 5703 5704 5706 5706 5707 5709 5712 5714 5715 5714 5714 5716 5717 5719 5720 5722 5723 5725 5727 5729 5731 5733 5737 5740 5743 5745 5747 5750 5752 5755 5757 5760 5763 5766 5769 5771 5774 5777
5690 5689 5689 5689 5690 5691 5692 5693 5694 5695 5697 5700 5702 5703 5703 5702 5702 5703 5705 5707 5710 5711 5713 5715 5717 5718 5721 5723 5727 5730 5732 5735 5737 5741 5744 5745 5749 5753 5756 5759 5762 5765 5769
5679 5677 5677 5677 5678 5679 5680 5681 5681 5683 5685 5687 5688 5690 5691 5691 5691 5690 5690 5691 5693 5695 5698 5700 5703 5705 5707 5710 5712 5715 5718 5720 5723 5728 5732 5734 5736 5741 5745 5748 5752 5755 5759
5666 5665 5666 5666 5667 5669 5669 5669 5670 5671 5672 5673 5674 5675 5676 5677 5679 5679 5678 5677 5678 5680 5681 5683 5687 5691 5692 5695 5698 5701 5704 5707 5709 5713 5717 5721 5724 5728 5732 5736 5741 5744 5748
5651 5652 5654 5654 5655 5657 5658 5657 5657 5659 5659 5660 5660 5660 5660 5661 5662 5664 5664 5662 5662 5663 5663 5665 5667 5671 5674 5677 5680 5684 5687 5691 5695 5699 5703 5707 5711 5715 5719 5723 5727 5731 5736
5636 5639 5642 5642 5643 5644 5645 5645 5645 5646 5646 5646 5646 5645 5643 5642 5642 5644 5645 5645 5646 5645 5646 5647 5648 5651 5655 5659 5664 5667 5669 5673 5677 5682 5688 5693 5698 5702 5705 5709 5714 5718 5723
5625 5626 5627 5629 5631 5632 5633 5632 5631 5631 5631 5630 5629 5628 5626 5626 5625 5624 5625 5626 5628 5627 5625 5625 5625 5628 5633 5638 5643 5648 5651 5654 5659 5665 5670 5678 5683 5688 5692 5697 5701 5706 5710
5613 5614 5616 5617 5618 5618 5619 5619 5620 5619 5617 5615 5613 5612 5612 5614 5613 5611 5611 5610 5608 5606 5602 5599 5599 5600 5606 5614 5620 5625 5632 5637 5641 5647 5653 5660 5667 5673 5679 5685 5689 5694 5699
5600 5602 5604 5605 5606 5606 5607 5607 5607 5605 5603 5601 5600 5600 5601 5601 5599 5598 5596 5593 5589 5583 5577 5575 5575 5577 5581 5587 5596 5603 5612 5619 5622 5626 5634 5642 5650 5657 5664 5670 5677 5682 5688
5586 5590 5593 5594 5595 5595 5595 5594 5593 5591 5590 5589 5588 5589 5590 5588 5587 5585 5582 5575 5568 5562 5560 5560 5558 5558 5560 5566 5574 5581 5590 5597 5602 5608 5615 5622 5631 5640 5648 5656 5664 5671 5676
5575 5578 5580 5583 5584 5584 5584 5582 5580 5578 5578 5577 5578 5578 5577 5576 5574 5571 5567 5560 5552 5546 5544 5547 5546 5544 5544 5549 5555 5562 5569 5576 5583 5591 5597 5604 5613 5623 5632 5641 5650 5658 5663
5562 5566 5569 5570 5572 5572 5572 5570 5569 5568 5567 5566 5566 5565 5564 5563 5562 5559 5554 5548 5541 5534 5530 5533 5532 5531 5531 5533 5538 5543 5549 5556 5564 5572 5580 5587 5595 5606 5616 5625 5634 5642 5647
5551 5554 5557 5559 5560 5561 5560 5559 5557 5556 5555 5554 5554 5553 5552 5551 5550 5547 5542 5537 5531 5524 5519 5518 5518 5518 5518 5519 5522 5527 5531 5537 5546 5554 5563 5570 5578 5588 5599 5609 5618 5627 5634
5540 5542 5545 5548 5549 5549 5549 5548 5546 5545 5543 5543 5543 5541 5540 5539 5539 5535 5532 5528 5522 5516 5510 5506 5505 5505 5506 5507 5509 5512 5515 5520 5529 5537 5544 5554 5565 5574 5583 5593 5602 5611 5621
5529 5531 5534 5535 5536 5536 5536 5536 5534 5534 5532 5532 5531 5530 5529 5528 5527 5525 5522 5518 5514 5509 5504 5499 5496 5496 5497 5497 5497 5499 5502 5505 5514 5520 5528 5538 5547 5558 5567 5576 5586 5594 5603
5519 5520 5522 5522 5523 5524 5525 5524 5522 5521 5521 5521 5520 5519 5518 5517 5516 5513 5511 5508 5505 5501 5497 5493 5489 5486 5488 5488 5487 5487 5489 5491 5500 5506 5513 5523 5532 5543 5550 5559 5569 5577 5586
5508 5509 5510 5511 5512 5512 5513 5511 5510 5509 5509 5508 5506 5506 5506 5505 5503 5502 5500 5499 5495 5492 5489 5486 5484 5481 5479 5478 5477 5477 5478 5480 5486 5494 5502 5511 5518 5528 5537 5545 5553 5561 5569
5497 5498 5498 5499 5500 5500 5499 5499 5497 5496 5495 5494 5493 5492 5492 5492 5490 5490 5490 5488 5485 5482 5480 5478 5477 5475 5473 5471 5469 5468 5468 5471 5477 5483 5491 5501 5508 5517 5525 5532 5538 5545 5553
5487 5487 5487 5487 5486 5486 5485 5486 5485 5482 5481 5480 5479 5479 5478 5478 5477 5478 5478 5476 5474 5471 5468 5467 5466 5467 5466 5464 5462 5461 5462 5464 5468 5474 5480 5490 5498 5505 5511 5516 5524 5531 5537
5476 5475 5475 5474 5473 5472 5472 5471 5471 5468 5466 5466 5466 5465 5465 5465 5464 5464 5464 5464 5462 5460 5458 5456 5454 5454 5456 5455 5454 5454 5455 5456 5459 5462 5468 5474 5482 5488 5495 5503 5509 5516 5522
5463 5462 5462 5461 5460 5459 5457 5456 5456 5454 5453 5451 5450 5451 5450 5450 5450 5449 5449 5450 5450 5448 5447 5444 5443 5442 5442 5444 5443 5442 5444 5445 5447 5452 5456 5461 5466 5472 5481 5489 5496 5501 5507
Wind_Speed
49 49 49 48 47 47 47 47 46 45 45 45 45 45 44 42 39 39 37 35 34 34 32 30 30 32 33 33 32 31 30 29 28 27 26 25 22 21 22 15 18 25 22
53 53 53 52 50 49 49 48 48 47 47 47 47 46 46 44 41 41 40 40 39 39 37 34 32 32 33 35 35 34 33 32 32 32 31 29 26 24 24 23 23 23 22
54 55 54 53 52 50 49 48 48 47 48 48 47 46 45 43 42 41 41 41 41 41 41 40 38 36 35 35 36 37 36 35 35 36 35 34 33 31 30 30 29 28 25
51 52 52 52 52 51 49 48 47 47 46 46 46 45 45 45 44 43 41 41 41 42 43 43 43 43 41 38 37 38 39 38 39 39 39 37 37 35 34 35 34 33 29
48 48 49 51 52 51 49 48 47 46 45 45 45 46 46 45 45 45 43 42 43 44 46 46 46 47 47 45 42 42 41 41 42 42 42 42 41 40 39 37 36 35 32
47 47 47 47 48 48 47 46 46 45 45 45 46 46 46 45 44 44 44 44 44 45 45 47 48 49 50 51 50 47 45 44 45 46 46 46 45 44 43 42 40 39 37
49 48 48 46 47 46 46 46 45 45 45 45 46 46 46 48 49 49 49 48 47 47 47 47 48 50 51 52 54 53 51 49 48 49 49 50 49 47 46 46 45 45 43
49 47 47 45 43 43 42 42 43 44 47 48 49 50 50 50 52 53 53 54 53 53 52 52 51 52 54 54 54 56 55 55 53 52 52 53 52 49 49 48 48 47 46
50 47 45 44 41 41 41 40 40 44 47 49 49 51 52 52 53 55 57 58 59 60 60 59 56 54 54 56 56 56 56 57 58 57 55 56 55 52 51 51 50 50 49
48 45 45 44 42 41 39 39 41 43 45 47 49 51 54 57 61 63 63 63 64 65 67 67 65 62 60 61 60 59 60 61 61 62 61 60 58 56 54 54 54 53 52
45 39 42 40 39 38 39 41 41 44 46 48 51 55 60 64 67 69 65 62 62 65 69 71 71 69 67 66 64 62 63 65 66 66 65 64 62 60 58 56 56 56 55
43 41 41 39 39 39 40 39 42 46 49 52 55 56 55 52 48 50 51 52 53 58 66 71 74 75 72 70 67 64 63 66 68 68 68 66 64 63 61 58 56 56 57
42 40 41 41 40 39 39 40 44 47 50 51 49 45 41 39 42 47 50 54 57 62 66 70 72 73 73 70 69 69 66 61 65 70 71 69 66 65 63 61 58 56 57
48 41 42 41 40 40 40 41 45 48 48 46 42 38 37 39 43 46 48 52 56 57 56 57 59 63 67 67 69 70 71 69 68 67 72 72 68 66 64 62 60 56 55
43 40 41 41 42 42 41 41 44 46 45 43 40 40 40 40 42 44 44 47 51 51 48 44 44 49 55 59 60 64 69 74 77 73 69 71 71 68 67 62 61 59 55
36 37 39 40 42 42 41 41 44 43 43 42 42 42 40 41 42 42 42 44 46 48 45 39 40 42 47 51 55 55 58 69 69 68 66 68 70 68 69 66 64 61 57
35 37 40 41 42 42 41 41 42 42 42 42 43 42 39 41 40 39 40 39 40 43 44 39 39 40 43 46 51 55 54 62 65 61 66 66 68 69 71 71 67 65 64
36 38 41 41 41 40 39 41 42 42 41 41 42 41 39 39 38 38 38 37 36 37 38 38 37 38 37 40 43 52 56 58 62 61 67 60 63 69 69 74 71 68 67
36 38 40 41 41 41 39 39 41 41 40 40 42 41 39 38 37 37 36 34 32 31 32 31 30 31 34 37 40 43 45 51 56 56 64 61 63 63 65 71 73 69 69
37 36 38 43 44 43 42 40 39 40 39 41 43 42 40 39 36 34 35 33 31 30 30 28 25 27 32 34 37 39 40 44 54 55 66 59 59 63 63 67 70 69 69
37 36 39 43 44 44 42 42 40 40 42 42 44 43 40 40 38 35 34 33 33 32 30 28 25 24 28 31 34 37 39 40 49 55 61 62 55 59 63 64 68 71 70
36 37 40 42 43 44 44 42 43 42 43 44 44 44 41 40 40 37 36 34 34 35 33 30 27 25 24 29 32 33 38 41 46 57 60 61 57 52 58 61 62 66 72
33 35 39 41 43 44 45 44 46 45 43 44 45 44 42 41 41 40 38 37 36 36 36 35 31 28 27 25 26 28 31 37 41 50 57 59 59 52 52 56 59 61 64
33 34 38 41 43 46 47 47 48 47 44 44 45 44 43 42 42 41 39 38 38 38 38 37 36 32 30 29 30 28 24 23 28 39 52 59 62 58 57 61 61 60 62
39 40 41 44 47 49 50 50 49 45 43 44 45 45 44 43 43 42 41 39 39 40 40 40 39 38 35 34 34 32 31 28 24 27 36 50 59 65 65 62 63 64 61
41 43 43 45 48 50 50 50 49 43 42 44 45 45 45 45 45 45 44 43 42 42 42 42 42 42 40 39 39 37 34 32 29 27 33 40 47 57 64 67 67 66 65
Wind_Direction
277 276 275 274 273 272 271 271 270 270 271 273 274 274 273 270 266 263 262 263 266 266 264 261 259 259 257 253 250 248 242 238 239 242 244 245 247 239 255 250 247 243 255
277 275 274 273 272 270 269 268 268 268 269 269 270 271 271 270 266 262 261 261 261 262 262 260 256 256 257 258 255 251 249 244 241 241 242 242 243 244 247 245 240 241 243
276 275 274 272 271 269 268 266 266 266 266 267 267 268 268 268 266 266 265 264 263 262 262 262 259 254 252 252 255 255 252 249 246 244 243 241 242 240 240 242 240 237 237
274 273 272 271 269 268 267 266 264 263 262 263 264 265 266 266 267 268 267 266 264 263 262 261 259 257 255 250 249 252 254 252 249 247 245 242 242 242 239 239 239 237 239
274 271 269 268 267 266 265 264 263 262 261 262 264 266 266 265 264 265 265 263 262 261 260 259 258 257 255 253 250 249 251 252 252 250 249 246 243 241 240 239 239 238 238
273 269 265 264 264 265 265 263 261 260 260 261 262 263 264 265 264 263 263 263 262 261 260 260 259 257 255 253 251 249 249 249 250 250 249 248 245 241 240 239 236 236 237
269 266 264 261 260 259 259 258 258 259 260 260 261 261 262 264 266 267 266 265 264 263 262 260 259 258 255 253 252 251 250 250 249 249 248 247 245 242 241 239 237 236 237
267 263 262 259 257 256 255 254 255 258 261 263 264 264 264 265 266 268 269 270 270 268 264 260 256 256 254 253 252 251 250 250 248 248 248 247 245 242 240 240 239 238 239
262 262 261 259 256 255 255 256 259 261 263 263 264 265 265 265 265 267 269 269 270 270 268 265 261 256 254 253 252 250 249 249 250 248 247 246 245 242 239 238 237 237 237
258 258 257 254 254 258 261 263 263 264 265 265 267 268 269 270 269 266 266 266 265 265 266 266 265 261 256 253 250 249 247 245 246 247 246 244 242 241 238 237 236 235 236
251 256 255 253 256 261 266 267 267 268 269 269 271 273 274 275 273 271 269 268 268 269 268 266 265 263 260 256 253 251 248 245 244 245 244 244 242 241 239 237 236 236 235
254 255 254 253 255 259 263 268 271 274 275 275 276 278 278 276 274 273 272 270 271 273 272 267 262 259 256 255 253 251 249 247 245 244 244 243 242 240 239 237 235 235 235
257 254 253 251 254 261 267 268 272 276 279 280 279 278 273 271 276 278 277 276 279 283 277 269 263 258 254 250 248 247 248 248 245 241 241 240 240 239 238 237 236 235 236
256 250 253 254 257 263 266 269 276 281 282 279 275 274 274 277 283 282 283 283 288 291 284 274 265 259 255 251 246 244 244 245 247 244 238 237 237 238 237 236 237 235 235
247 250 255 257 262 268 273 278 282 282 280 275 272 276 278 281 285 286 290 293 298 298 288 277 271 261 255 250 247 244 241 242 247 247 244 239 235 236 236 234 237 236 234
249 254 255 257 266 272 276 281 283 281 278 273 272 276 277 280 285 289 294 300 302 300 288 274 269 264 258 254 251 247 242 241 245 246 247 244 236 237 236 234 235 236 234
252 253 252 259 268 272 276 283 284 280 275 271 271 272 277 279 285 288 297 304 305 302 292 282 273 267 260 255 253 250 248 243 242 242 246 243 236 237 237 235 233 233 233
251 254 257 261 268 271 278 283 284 283 277 272 270 271 274 279 283 287 296 304 307 307 302 291 279 265 257 254 255 253 249 244 242 241 243 236 236 234 237 236 235 233 234
257 259 258 264 267 271 277 283 283 283 277 271 270 272 272 278 283 286 292 300 308 313 316 308 290 264 255 256 253 249 245 240 235 238 239 235 234 236 238 236 234 234 234
258 257 261 264 266 271 274 280 284 278 275 272 272 274 271 275 280 283 287 293 301 310 320 323 303 270 259 261 260 249 240 234 231 234 237 228 229 232 236 234 232 233 235
259 258 262 263 265 269 274 276 279 279 275 273 273 273 270 272 275 278 282 288 294 301 308 317 318 294 270 266 264 255 243 233 229 230 234 231 229 229 230 233 234 233 234
263 263 264 264 264 266 270 276 279 279 277 272 271 271 268 269 274 275 279 284 289 293 298 304 310 314 297 274 265 259 248 237 229 229 231 232 229 228 230 232 233 234 235
276 274 269 267 266 268 271 276 281 280 278 272 270 269 267 267 272 275 277 280 284 288 291 295 299 304 307 296 281 268 257 246 234 226 229 231 231 224 223 231 232 229 230
277 279 276 275 274 274 275 276 280 281 277 272 269 267 265 265 269 274 275 278 282 285 288 292 293 294 297 300 300 294 282 262 245 233 230 232 235 232 233 233 232 228 229
277 280 281 280 277 276 276 277 279 279 274 272 269 266 263 264 267 271 273 275 277 280 283 287 291 293 293 294 295 295 293 287 271 254 243 239 238 238 238 234 231 231 233
278 279 281 282 280 277 277 278 278 276 273 272 271 268 266 266 267 270 272 274 275 278 281 284 288 290 291 292 293 293 292 290 285 271 259 249 243 241 241 241 239 232 235